Terug naar catalogus

CZ-2D DEB

ActiefSSO
NORAD 38177·DEBRIS·🇨🇳 China

Gelanceerd Nov 20, 2011 vanaf Jiuquan Satellite Launch Center

Loading…

Volgende Passages (komende 24 uur)

TLE

VersSource: Space-Track

Epoch: Sep 13, 2026, 01:02 UTC

1 38177U 11068E   26256.04349663  .00000979  00000-0  25843-3 0  9998
2 38177  98.5000 283.7152 0117818 319.4315  68.7332 14.47271584773346

Volg CZ-2D DEB in realtime met AllMySat

Download on the App Store